Meteo Giornale » Osservazioni meteo Stati Uniti (USA) » Brookhaven Lab

ore: 10:55 - Osservazioni Meteo Brookhaven Lab
Lat. 40° 48' N Lon. 73° 18' W Alt. 20 metri s.l.m.

foschia

31 °C

Foschia

Temp. 24 Ore

22 °C

34 °C

Nord

5.5 Km/h

Dew point 23 °C

Umidità 62 %

Visibilità  10 Km

Il sole sorge alle ore 06:20

Il sole tramonta alle ore 19:25

Data e Ora Cielo e Fenomeni T °C DP °C Um. % Pres. hPa Vis. km Vento km/h
Oggi h: 10:55 foschia Foschia 31 23 62 1020 10 N 5.5
Oggi h: 10:35 foschia Foschia 30 23 66 1020 10 N 7.4
Oggi h: 10:15 foschia Foschia 29 23 70 1020 10 N 7.4
Oggi h: 09:55 foschia Foschia 29 23 70 1020 10 N 5.5
Oggi h: 09:35 foschia Foschia 28 23 74 1020 10 O/NO 7.4
Oggi h: 09:15 foschia Foschia 27 23 78 1020 10 N 5.5
Oggi h: 08:55 foschia Foschia 26 23 83 1020 10 N 0
Oggi h: 08:35 foschia Foschia 26 24 88 1020 10 N 0
Oggi h: 08:15 foschia Foschia 25 23 88 1020 8 N 0
Oggi h: 07:55 foschia Foschia 24 23 94 1019 6 N 0
Oggi h: 07:35 foschia Foschia 22 22 100 1019 6 N 0
Oggi h: 07:15 foschia Foschia 22 22 100 1019 8 N 0
Oggi h: 06:55 foschia Foschia 22 22 100 1019 8 N 0
Oggi h: 06:35 foschia Foschia 22 22 100 1018 10 N 0
Oggi h: 06:15 foschia Foschia 22 22 100 1019 10 N 0
Oggi h: 05:55 foschia Foschia 22 22 100 1019 10 N 0
Oggi h: 05:35 foschia Foschia 22 22 100 1018 10 N 0
Oggi h: 05:15 foschia Foschia 22 22 100 1018 8 N 0
Oggi h: 04:55 foschia Foschia 23 23 100 1018 10 N 0
Oggi h: 04:35 foschia Foschia 22 22 100 1018 10 N 0
Oggi h: 04:15 foschia Foschia 23 23 100 1018 10 N 0
Oggi h: 03:55 foschia Foschia 23 22 94 1018 10 N 0
Oggi h: 03:35 foschia Foschia 23 23 100 1018 10 N 0
Oggi h: 03:15 foschia Foschia 23 23 100 1018 10 N 0
Oggi h: 02:55 foschia Foschia 23 23 100 1019 10 N 0
Oggi h: 02:35 foschia Foschia 23 23 100 1019 10 N 0
Oggi h: 02:15 foschia Foschia 24 24 100 1019 10 N 0
Oggi h: 01:55 foschia Foschia 24 23 94 1019 10 N 0
Oggi h: 01:35 sereno Sereno 24 23 94 1019 11 N 0
Oggi h: 01:15 foschia Foschia 24 23 94 1019 10 N 0
Oggi h: 00:55 sereno Sereno 25 24 94 1019 11 N 0
Oggi h: 00:35 sereno Sereno 25 24 94 1019 11 N 0
Oggi h: 00:15 sereno Sereno 26 24 88 1019 11 N 0
Ieri h: 23:55 sereno Sereno 26 24 88 1019 11 N 0
Ieri h: 23:35 sereno Sereno 26 24 88 1019 11 N 0
Ieri h: 23:15 sereno Sereno 27 24 83 1019 13 S/SE 7.4
Ieri h: 22:55 sereno Sereno 27 24 83 1019 11 N 0
Ieri h: 22:35 sereno Sereno 27 24 83 1019 11 N 0
Ieri h: 22:15 sereno Sereno 27 24 83 1019 11 N 0
Ieri h: 21:55 sereno Sereno 28 24 78 1019 11 N 0
Ieri h: 21:35 poco_nuvoloso Poco Nuvoloso 28 24 78 1019 11 N 0
Ieri h: 21:15 poco_nuvoloso Poco Nuvoloso 28 24 78 1018 11 N 0
Ieri h: 20:55 sereno Sereno 28 24 78 1018 11 N 0
Ieri h: 20:30 nuvoloso Nuvoloso 28 23 74 1018 11 N 0
Ieri h: 20:15 foschia Foschia 29 23 70 1018 8 N 0
Ieri h: 19:55 foschia Foschia 30 23 66 1017 10 N 0
Ieri h: 19:35 foschia Foschia 31 23 62 1017 3 N 0
Ieri h: 19:15 foschia Foschia 32 22 55 1017 5 N 0
Ieri h: 18:55 foschia Foschia 32 22 55 1017 10 N 0
Ieri h: 18:35 foschia Foschia 32 22 55 1017 8 N 0
Ieri h: 18:15 foschia Foschia 33 21 49 1017 10 E/NE 7.4
Ieri h: 17:55 foschia Foschia 34 21 46 1017 10 N 11.1
Ieri h: 17:35 poco_nuvoloso Poco Nuvoloso 33 21 49 1017 11 E 11.1
Ieri h: 17:15 foschia Foschia 33 21 49 1017 10 E/NE 7.4
Ieri h: 16:55 foschia Foschia 34 20 43 1018 10 N/NE 7.4
Ieri h: 16:35 foschia Foschia 33 21 49 1018 10 N 0
Ieri h: 16:15 foschia Foschia 33 21 49 1018 10 N 0
Ieri h: 15:55 foschia Foschia 33 21 49 1018 10 N 7.4
Ieri h: 15:35 foschia Foschia 33 22 52 1018 8 N 5.5
Ieri h: 15:15 foschia Foschia 33 22 52 1018 10 N 7.4
Ieri h: 14:55 foschia Foschia 32 22 55 1019 10 N 0
Ieri h: 14:35 coperto_temporali Temporale 33 22 52 1019 8 N 0
Ieri h: 14:15 foschia Foschia 32 22 55 1019 10 E/NE 7.4
Ieri h: 13:55 foschia Foschia 31 22 58 1020 10 N 0
Ieri h: 13:35 foschia Foschia 31 22 58 1020 10 N 0
Ieri h: 13:15 foschia Foschia 31 22 58 1020 10 N 0
Ieri h: 12:55 foschia Foschia 31 23 62 1020 10 NE 11.1
Ieri h: 12:35 foschia Foschia 31 23 62 1020 10 N 0
Ieri h: 12:15 poco_nuvoloso Poco Nuvoloso 30 23 66 1020 11 N 5.5
Ieri h: 11:55 foschia Foschia 30 23 66 1021 10 N 5.5
Ieri h: 11:35 foschia Foschia 30 23 66 1021 10 N/NE 9.3